小惑星2010 GW147

2010 GW147

English version
Home page
Updated on March 6, 2011

---------------------------------------------------------------------

・ プロフィール

発見日 2010年4月14日
発見光度 23等
発見者 Wide Field Infrared Survey Explorer (NASA)

・ 軌道要素

The following orbital elements are taken from MPO181801

Epoch 2011 Feb. 8.0 TT = JDT 2455600.5                  MPC
M   0.24475              (2000.0)            P               Q
n   0.00035828     Peri.   50.21486     +0.34449816     -0.60510271
a 196.3318952      Node   313.27013     -0.81009728     +0.19475155
e   0.9725770      Incl.   99.68402     +0.47440849     +0.77196019
P2751              H   13.2           G   0.15
From 61 observations 2010 Apr. 14-June 19, mean residual 0".78.

・ 光度変化

        H = 13.8  G = 0.15

---------------------------------------------------------------------

軌道要素はMPCのEphemerides and Orbital Elementsに掲載されたものです。
光度グラフはComet for Windowsで作成したものです。

---------------------------------------------------------------------

Copyright(C) Seiichi Yoshida (comet@aerith.net). All rights reserved.